Regional Weather Roundup
Issued by NWS

Home | Current Version | Previous Version | Graphics & Text | Print | Product List | Glossary On
Versions: 1 2 3 4 5 6 7 8 9 10 11 12 13 14 15 16 17 18 19 20 21 22 23 24 25 26 27 28 29 30 31 32 33 34 35 36 37 38 39 40 41 42 43 44 45 46 47 48 49 50
939
ASUS44 KMEG 250600
RWRTN
TENNESSEE HOURLY STATE WEATHER ROUNDUP
NATIONAL WEATHER SERVICE MEMPHIS TN
100 AM CDT SUN JUN 25 2017

TNZ002-004-019-021-049-052-054-088>092-250700-
WEST TENNESSEE

CITY           SKY/WX    TMP DP  RH WIND       PRES   REMARKS
MEMPHIS INTL   MOCLDY    72  60  66 N7        30.18R
NWS MEMPHIS      N/A     70 N/A N/A MISG        N/A
JACKSON        PTCLDY    63  59  87 CALM      30.17S
$$

TNZ008-025-027-028-033-062-065-066-250700-
NORTH MIDDLE TENNESSEE

CITY           SKY/WX    TMP DP  RH WIND       PRES   REMARKS
NASHVILLE      MOCLDY    69  54  58 N3        30.17S
CLARKSVILLE    CLEAR     59  55  87 CALM      30.18R
SMYRNA         CLOUDY    65  58  78 NW6       30.17S
CROSSVILLE     CLEAR     62  57  83 CALM      30.18S
$$

TNZ061-075-076-078-094-096-097-250700-
SOUTH MIDDLE TENNESSEE

CITY           SKY/WX    TMP DP  RH WIND       PRES   REMARKS
MCMINNVILLE    CLEAR     64  63  94 N3        30.16S
$$

TNZ017-018-042-046-047-250700-
NORTHEAST TENNESSEE

CITY           SKY/WX    TMP DP  RH WIND       PRES   REMARKS
TRI CITIES     MOCLDY    64  62  93 CALM      30.13S
$$

TNZ012-013-036-069-073-074-250700-
CENTRAL EAST TENNESSEE

CITY           SKY/WX    TMP DP  RH WIND       PRES   REMARKS
KNOXVILLE      PTCLDY    71  58  63 CALM      30.13R
OAK RIDGE      PTCLDY    65  60  84 CALM      30.14S
GATLINBURG     MOCLDY    66  61  82 CALM      30.13S
$$

TNZ083-085-099-250700-
SOUTHEAST TENNESSEE

CITY           SKY/WX    TMP DP  RH WIND       PRES   REMARKS
CHATTANOOGA    PTCLDY    69  61  75 CALM      30.13S
$$

SKY/WX REPORTED AS FAIR MEANS FEW OR NO CLOUDS BELOW
12 THOUSAND FEET.





USA.gov is the U.S. government's official web portal to all federal, state and local government web resources and services.